Retour au catalogue

SL-16 DEB

ActifLEO
NORAD 22620·DEBRIS·🇷🇺 Russia

Lancé Mar 26, 1993 depuis Baikonur Cosmodrome

Loading…

Prochains Passages (prochaines 24 heures)

TLE

FraisSource: Space-Track

Époque: Sep 14, 2026, 14:49 UTC

1 22620U 93016AE  26257.61793625 -.00000019  00000-0  20344-4 0  9990
2 22620  71.0086  17.6243 0132053  81.5358 291.4906 13.84136984689914

Suivez SL-16 DEB en temps réel avec AllMySat

Download on the App Store